(173) Ino
ephemeris date magn radius delta ra dec elong phase
Today17 Sep 202514.13.316 AU4.249 AU12h54m+03°11'19.2°5.7°
Opposition14 May 202612.63.149 AU2.183 AU15h44m+01°24'159.4°6.5°
(173) Ino - 2025-09-17
astro.vanbuitenen.nl


 
-1 year
-1 month
-1 day
Now
+1 day
+1 month
+1 year

The interactive orbit chart above shows the body's path through the solar system and its position at the given date. Green and blue lines are shown perpendicular to the ecliptic plane: Green if the path is above the ecliptic plane, blue if it is below. (Left-click and drag to rotate the view; Right-click and drag to move the view; Use scroll wheel to zoom in our out.)

The orbital elements of Ino are:

            e (Eccentricity)                : 0.2096775
            a (Semimajor axis)              : 2.7412958
            i (Inclination)                 : 14.19579
            Ω (Longitude of ascending node) : 148.12726
            ω (Argument of perihelion)      : 228.57032
            M (Mean anomaly)                : 151.93545
            Epoch                           : 2025 May 05

            L (Longitude of perihelion)     : 195.81446
            B (Latitude of perihelion)      : -10.59528
            P (Orbital period in years)     : 4.54            
        

The light curve chart below shows the estimated development of the minor planet's magnitude.


The all-sky chart below shows the path of the minor planet over the same period as the light curve. The current position is marked yellow.





The following chart shows the path of the minor planet in the next few days. The field of view is optimized for (~10x50) binoculars and finderscopes. A more printer-friendly version of the same chart can be found below.




Ephemerides:
Date       Time       RA (2000)    DEC (2000)    delta   radius  elong  phase   PA    magn
2025-09-17 00:00 UT   12 54 52.0   +03 11 47     4.249    3.316   19.2    5.7    88   14.1 
2025-09-17 18:39 UT   12 55 50.0   +03 06 10     4.252    3.316   18.8    5.6    87   14.1 
2025-09-18 00:00 UT   12 56 06.6   +03 04 34     4.253    3.316   18.6    5.6    87   14.1 
2025-09-19 00:00 UT   12 57 21.3   +02 57 22     4.256    3.316   18.1    5.4    86   14.1 
2025-09-20 00:00 UT   12 58 36.2   +02 50 11     4.260    3.316   17.5    5.2    85   14.1 
2025-09-21 00:00 UT   12 59 51.2   +02 43 00     4.263    3.316   17.0    5.1    84   14.1 
2025-09-22 00:00 UT   13 01 06.3   +02 35 51     4.266    3.316   16.4    4.9    83   14.1 
2025-09-23 00:00 UT   13 02 21.6   +02 28 42     4.270    3.316   15.9    4.8    81   14.1 
2025-09-24 00:00 UT   13 03 37.0   +02 21 34     4.272    3.316   15.4    4.6    80   14.1 
2025-09-25 00:00 UT   13 04 52.6   +02 14 27     4.275    3.316   14.8    4.4    79   14.1 
2025-09-26 00:00 UT   13 06 08.2   +02 07 21     4.278    3.315   14.3    4.3    77   14.1 
2025-09-27 00:00 UT   13 07 24.0   +02 00 16     4.280    3.315   13.8    4.1    75   14.1 
2025-09-28 00:00 UT   13 08 39.9   +01 53 12     4.282    3.315   13.3    4.0    74   14.0 
2025-09-29 00:00 UT   13 09 55.9   +01 46 09     4.284    3.315   12.9    3.9    72   14.0 
2025-09-30 00:00 UT   13 11 12.1   +01 39 08     4.286    3.315   12.4    3.7    70   14.0 
2025-10-01 00:00 UT   13 12 28.3   +01 32 08     4.288    3.315   11.9    3.6    67   14.0 
2025-10-02 00:00 UT   13 13 44.6   +01 25 09     4.290    3.315   11.5    3.5    65   14.0 
2025-10-03 00:00 UT   13 15 01.1   +01 18 11     4.291    3.315   11.1    3.3    62   14.0 
2025-10-04 00:00 UT   13 16 17.6   +01 11 15     4.292    3.315   10.7    3.2    60   14.0 
2025-10-05 00:00 UT   13 17 34.2   +01 04 20     4.293    3.314   10.4    3.1    57   14.0 
2025-10-06 00:00 UT   13 18 51.0   +00 57 27     4.294    3.314   10.0    3.0    54   14.0 
2025-10-07 00:00 UT   13 20 07.8   +00 50 35     4.295    3.314    9.7    2.9    50   14.0 
2025-10-08 00:00 UT   13 21 24.7   +00 43 44     4.296    3.314    9.5    2.8    47   14.0 
2025-10-09 00:00 UT   13 22 41.7   +00 36 56     4.296    3.314    9.2    2.8    43   14.0 
2025-10-10 00:00 UT   13 23 58.8   +00 30 08     4.296    3.314    9.0    2.7    39   14.0 
2025-10-11 00:00 UT   13 25 15.9   +00 23 23     4.296    3.314    8.9    2.7    35   14.0 
2025-10-12 00:00 UT   13 26 33.2   +00 16 39     4.296    3.313    8.8    2.6    31   14.0 


    Terminology:
            
    delta:  distance between minor planet and earth in AU
    radius: distance between minor planet and sun in AU
    magn:   magnitude (brightness) estimate    
    ra:     right ascension in hours (24h = 360deg)
    dec:    declination in degrees
    elong:  elongation in degrees (angle sun-earth-minor planet)    
    phase:  phase angle in degrees (angle sun-minor planet-earth)        
    AU:     Astronomical Unit (mean distance between earth and sun: 149597870.7 km
    

Orbital elements provided by the MPC (Minor Planet Center).
Calculations by a modified version of AAPlus, a C# implementation of the AA+ project by PJ Naughter from the algorithms presented in the book "Astronomical Algorithms" by Jean Meeus.
NGC2000 dso catalog and star labels from VizieR as provided by the Strasbourg astronomical Data Center.
Tycho2 catalog from the ESO archive.